Starlink 33635

operational
NORAD ID: 63065 Int'l Des: 2025-035 Owner: SPXS Country: US Constellation: starlink
LEOCIRCULAR

Über Starlink 33635

Beschreibung wird geladen...

Live-Position

3D-Globus wird geladen...

Nächste Überflüge

Höhenverlauf

Altitude vs Time

uPlot chart will show altitude changes over time

Zweizeiliger Elementsatz

1 63065U 25035P 25258.15045016 .00052435 00000-0 18984-2 0 9990
2 63065 43.0055 58.4031 0002002 269.2665 90.7957 15.27632349 32880
Epoch: 15. Sept. 2025 • Age: 15 hours

Aktueller Status

Höhe 483.7 km
Geschwindigkeit 7.63 km/s
Subsatellitenpunkt 26.69°N, 67.53°W
Startdatum 21. Feb. 2025
Alter 0.5 years
Typ internet

Technische Details

Klassifizierung Payload
Masse 575.00 kg
Trockenmasse 530.00 kg
Gesamtmasse 575.00 kg
Länge 0.30 m
Durchmesser 4.10 m
Spannweite 29.00 m
Form Box + pan
Hersteller SPXS
Bus-Typ Starlink V2MO
Phasenstatus In Orbit
Besitzer/Staat SPXS/US

Große Konstellationen

Loading constellations...